Погода в Чжанхуа

Тайвань     24°05′04″N   120°32′06″E
темп.,
°C
ветер,
м/с
пор.,
м/с
влажн.,
%
обл.,
%
осадки,
мм/ч
давл.,
гПа
погр.,
м
11 апреля, вс
вс1123:00+21ссв57793 0.0 1019423
02:00+21ссв358313 0.0 1018380
05:00+20св128327 0.1 1018235
08:00+23с117133 0.1 1020540
11:00+23ссз437259 0.0 1020691
14:00+25ссз546211 0.0 1017715
17:00+24ссз336910 0.0 1017553
20:00+22с33762 0.0 1018309
12 апреля, пн
пн1223:00+21ссз11780 0.0 1018207
02:00+21ссз11810 0.0 1017182
05:00+21ссз11840 0.0 1017142
08:00+23з11725 0.0 1018432
11:00+27з44561 0.0 1017941
14:00+28з55520 0.0 1015855
17:00+26з33535 0.0 1014633
20:00+25сз11580 0.0 1015237
13 апреля, вт
вт1323:00+24ююв11580 0.0 101572
02:00+23зюз11645 0.0 101454
05:00+23ссв11670 0.0 101425
08:00+25зсз10560 0.0 1016439
11:00+29сз43444 0.0 10151022
14:00+29ссз55515 0.0 10131063
17:00+26ссз55635 0.0 1013769
20:00+24с567210 0.0 1014433
14 апреля, ср
ср1423:00+23с56762 0.0 1015401
02:00+22с57808 0.0 1014384
05:00+21ссв568220 0.0 1014419
08:00+23с457017 0.0 1015570
11:00+26с65560 0.0 1014837
14:00+27с77534 0.0 1012769
17:00+25с89597 0.0 1012612
20:00+22с710676 0.0 1014414
15 апреля, чт
чт1523:00+21с577015 0.0 1014392
02:00+21с347037 0.0 1013270
05:00+21с357262 0.0 1014338
08:00+23ссв11604 0.0 1014406
11:00+26ссз4456100 0.0 1014784
14:00+27ссз545568 0.0 1011845
17:00+25с5564100 0.0 1012555
20:00+23с687596 0.0 1015483